Location: N�rnberg
(49.4489°N, 11.0797°E)
Time: 15:51:30
(UTC+01:00)

ISS - Pass Details

Date: 16 November 2017
Orbit: 402 x 407 km, 51.6° (Epoch: 24 November)

Event Time Altitude Azimuth Distance (km) Brightness Sun altitude
Exits shadow 05:38:07 25° 207° (SSW) 845 -2.4 -17.7°
Drops below altitude 10° 05:40:38 10° 157° (SSE) 1,449 -0.6 -17.3°
Sets 05:42:54 0° 145° (SE) 2,305 0.7 -17.0°
